Location: Brachbach
(49.1847°N, 9.7240°E)
Time: 07:51:43
(UTC+00:00)

FO-29 - Pass Details

Date: 14 March 2026
Orbit: 801 x 1320 km, 98.5° (Epoch: 17 April)

Event Time Altitude Azimuth Distance (km) Brightness Sun altitude
Rises 20:11:45 0° 13° (NNE) 4,061 13.0 -27.0°
Reaches altitude 10° 20:14:17 10° 13° (NNE) 3,154 12.3 -27.3°
Maximum altitude 20:21:40 82° 288° (WNW) 1,297 10.0 -28.3°
Drops below altitude 10° 20:29:31 10° 202° (SSW) 3,338 12.1 -29.4°
Sets 20:32:16 0° 201° (SSW) 4,309 12.7 -29.7°
